This is the latest recevied weather packets stored in our database for station/object DELTON-WX. If no packets are shown the sender has not sent any weather packets the latest 10 day(s).
| Time | Temp. | Humidity | Pressure | Rain* | Wind** | Luminosity | Snow |
|---|---|---|---|---|---|---|---|
| 1777760147 | 7.78° C | 44% | 984.6 hPa | 0 mm | - | - | - |
| 1777759273 | 7.78° C | 44% | 984.6 hPa | 0 mm | - | - | - |
| 1777758347 | 7.78° C | 46% | 984.7 hPa | 0 mm | - | - | - |
| 1777757465 | 7.78° C | 43% | 984.3 hPa | 0 mm | - | - | - |
| 1777756546 | 7.78° C | 43% | 984.3 hPa | 0 mm | - | - | - |
| 1777755675 | 7.78° C | 43% | 984.3 hPa | 0 mm | - | - | - |
| 1777754746 | 7.78° C | 39% | 984.7 hPa | 0 mm | - | - | - |
| 1777753864 | 8.33° C | 39% | 985.2 hPa | 0 mm | - | - | - |
| 1777752946 | 7.78° C | 39% | 985.2 hPa | 0 mm | - | - | - |
| 1777752073 | 7.78° C | 39% | 985.2 hPa | 0 mm | - | - | - |
| 1777751146 | 7.78° C | 40% | 985.3 hPa | 0 mm | - | - | - |
| 1777750260 | 7.78° C | 40% | 985.3 hPa | 0 mm | - | - | - |
| 1777749346 | 8.33° C | 40% | 985.3 hPa | 0 mm | - | - | - |
| 1777748474 | 7.78° C | 40% | 985.3 hPa | 0 mm | - | - | - |
| 1777747546 | 7.78° C | 49% | 985 hPa | 0 mm | - | - | - |
| 1777746665 | 7.78° C | 50% | 985.1 hPa | 0 mm | - | - | - |
| 1777745745 | 7.22° C | 50% | 985.1 hPa | 0 mm | - | - | - |
| 1777744878 | 7.22° C | 50% | 985.1 hPa | 0 mm | - | - | - |
| 1777743946 | 7.22° C | 47% | 985.7 hPa | 0 mm | - | - | - |
| 1777743063 | 6.67° C | 46% | 985.6 hPa | 0 mm | - | - | - |
| 1777742146 | 7.78° C | 46% | 985.6 hPa | 0 mm | - | - | - |
| 1777741270 | 7.22° C | 46% | 985.6 hPa | 0 mm | - | - | - |
| 1777740347 | 7.22° C | 48% | 985.4 hPa | 0 mm | - | - | - |
| 1777739466 | 6.67° C | 46% | 984.9 hPa | 0 mm | - | - | - |
| 1777738546 | 6.67° C | 46% | 984.9 hPa | 0 mm | - | - | - |
* Rain latest hour (hover to see other rain measurements)
** Current wind speed in m/s (hover to see current wind gust speed)